Regional Weather Roundup
Issued by NWS

Home | Current Version | Previous Version | Text Only | Print | Product List | Glossary On
Versions: 1 2 3 4 5 6 7 8 9 10 11 12 13 14 15 16 17 18 19 20 21 22 23 24 25 26 27 28 29 30 31 32 33 34 35 36 37 38 39 40 41 42 43 44 45 46 47 48 49 50
000
ASUS45 KPSR 231310
RWRAZ

ARIZONA HOURLY REGIONAL WEATHER ROUNDUP
NATIONAL WEATHER SERVICE PHOENIX AZ
600 AM MST SAT MAY 23 2015

NOTE: FAIR INDICATES FEW OR NO CLOUDS BELOW 12,000 FEET WITH NO
SIGNIFICANT WEATHER AND/OR OBSTRUCTIONS TO VISIBILITY.

AZZ001>003-036-231400-
NORTHWEST ARIZONA

CITY           SKY/WX    TMP DP  RH WIND       PRES   REMARKS
BULLHEAD CITY  PTCLDY    63  45  51 CALM      29.93R
KINGMAN        CLEAR     47  38  71 SE8       29.98R
$$

AZZ004>008-015-016-018-231400-
NORTH CENTRAL ARIZONA

CITY           SKY/WX    TMP DP  RH WIND       PRES   REMARKS
GRAND CANYON   LGT RAIN  37  36  96 CALM      30.04S FOG
WILLIAMS       CLEAR     32  32 100 S5        30.11S WCI  27
PRESCOTT       PTCLDY    47  35  63 S5        30.03R
FLAGSTAFF      PTCLDY    36  33  89 CALM      30.06R
PAYSON         PTCLDY    43  32  65 CALM      30.06R
PAGE           LGT RAIN  50  42  74 CALM      29.98R
$$

AZZ009>014-017-231400-
NORTHEAST ARIZONA

CITY           SKY/WX    TMP DP  RH WIND       PRES   REMARKS
WINSLOW        PTCLDY    43  30  60 CALM      30.03S
SAINT JOHNS    PTCLDY    41  31  67 S6        30.06R
WINDOW ROCK    CLEAR     34  27  75 CALM      30.07R
SHOW LOW       CLEAR     37  32  81 S6        30.09R WCI  33
$$

AZZ023-231400-
GREATER PHOENIX AREA

CITY           SKY/WX    TMP DP  RH WIND       PRES   REMARKS
PHOENIX        PTCLDY    65  40  39 N7        29.95R
BUCKEYE        CLEAR     57  41  54 CALM      29.98R
LUKE AFB       CLEAR     61  43  51 SW13      29.95R
DEER VALLEY    CLEAR     59  40  49 SW5       29.96R
SCOTTSDALE     CLEAR     61  41  47 CALM      29.98R
MESA-FALCON    PTCLDY    59  37  44 SE9       29.97
MESA-GATEWAY   PTCLDY    55  41  58 SE7       29.99R
CHANDLER       PTCLDY    57  43  58 VRB6      29.97
$$

AZZ027-028-231400-
SOUTHWEST MARICOPA COUNTY AND PINAL COUNTY

CITY           SKY/WX    TMP DP  RH WIND       PRES   REMARKS
CASA GRANDE    CLEAR     55  39  54 CALM      29.98R
GILA BEND      FAIR      58  43  58 SE2       29.98R
$$

AZZ503-504-507>509-231400-
SOUTHEAST ARIZONA

CITY           SKY/WX    TMP DP  RH WIND       PRES   REMARKS
TUCSON         CLEAR     54  34  46 SE6       30.04R
DAVIS-MONTHAN  CLEAR     52  34  50 S7        30.02R
RYAN FIELD       N/A     52  34  50 MISG      30.04
NOGALES        CLEAR     44  30  57 E5        30.04R
SIERRA VISTA   CLEAR     50  32  50 S3        30.07R
DOUGLAS        CLEAR     43  28  55 CALM      30.05R
SAFFORD        CLEAR     53  36  52 NW6       29.99R
$$

AZZ020-021-025-026-031-231400-
SOUTHWEST ARIZONA

CITY           SKY/WX    TMP DP  RH WIND       PRES   REMARKS
YUMA           CLEAR     60  45  57 CALM      29.97R
$$

CAZ031-033-041-043-047-048-061-231400-
SOUTHERN CALIFORNIA

CITY           SKY/WX    TMP DP  RH WIND       PRES   REMARKS
DOWNTOWN L.A.  MOCLDY    58  51  78 CALM      30.06R
L.A. AIRPORT   MOCLDY    58  53  84 CALM      30.07R
SAN DIEGO      MOCLDY    61  53  75 W5        30.09R
BURBANK        PTCLDY    56  50  80 CALM      30.05S
ONTARIO        CLOUDY    56  53  90 E3        30.06S
RIVERSIDE      CLOUDY    58  51  78 CALM      30.06S
PALM SPRINGS   PTCLDY    59  47  64 S6        29.96S
EL CENTRO NAS  CLEAR     62  45  53 SW13      29.97S
IMPERIAL       CLEAR     61  46  57 W10       29.95S
BLYTHE         CLEAR     57  46  66 N6        29.93R
NEEDLES        CLEAR     62  42  47 CALM      29.92R
$$

NVZ020-UTZ003-231400-
SOUTHERN NEVADA-UTAH

CITY           SKY/WX    TMP DP  RH WIND       PRES   REMARKS
LAS VEGAS      MOCLDY    59  42  53 SW12      29.88R
SALT LAKE CITY CLOUDY    50  45  83 CALM      29.92S
$$

NMZ009-TXZ055-231400-
NEW MEXICO-WEST TEXAS

CITY           SKY/WX    TMP DP  RH WIND       PRES   REMARKS
ALBUQUERQUE    MOSUNNY   55  29  36 N6        30.03R
EL PASO        PTSUNNY   67  27  22 S6        30.00R
$$


........................KEY........................
SKY/WX - SKY CONDITION/WEATHER
TMP    - TEMPERATURE IN FAHRENHEIT
DP     - DEW POINT IN FAHRENHEIT
RH     - RELATIVE HUMIDITY IN PERCENT
WIND   - DIRECTION AND SPEED IN MILES PER HOUR (MPH)
VRB    - VARIABLE WIND DIRECTION
PRES   - MEAN SEA LEVEL PRESSURE IN INCHES OF MERCURY
         F - FALLING PRESSURE   R - RISING PRESSURE
         S - STEADY PRESSURE
VSB    - VISIBILITY IN MILES
HX     - HEAT INDEX IN FAHRENHEIT
WCI    - WIND CHILL INDEX IN FAHRENHEIT
TC     - TEMPERATURE IN CELSIUS WHICH IS ALSO KNOWN AS
         TEMPERATURE IN CENTIGRADE
AFB    - AIR FORCE BASE
         LUKE AFB IS LUKE AIR FORCE BASE
         DAVIS-MONTHAN IS DAVIS-MONTHAN AIR FORCE BASE
NAS    - NAVAL AIR STATION
         EL CENTRO NAS IS EL CENTRO NAVAL AIR STATION
N/A    - NOT AVAILABLE




USA.gov is the U.S. government's official web portal to all federal, state and local government web resources and services.